Location: Borotín
(49.5055°N, 14.6142°E)
Time: 06:10:34
(UTC+00:00)

SeaSat 1 - Pass Details

Date: 27 May 2022
Orbit: 743 x 747 km, 108.0° (Epoch: 28 June)

Event Time Altitude Azimuth Distance (km) Brightness Sun altitude
Rises 02:18:34 0° 39° (NE) 3,202 8.2 -6.5°
Reaches altitude 10° 02:21:15 10° 53° (NE) 2,273 6.8 -6.2°
Maximum altitude 02:25:15 25° 107° (ESE) 1,498 4.4 -5.7°
Drops below altitude 10° 02:29:15 10° 162° (SSE) 2,259 4.7 -5.2°
Sets 02:31:53 0° 175° (S) 3,177 5.3 -4.9°
